Regional Weather Roundup
Issued by NWS

Home | Current Version | Previous Version | Text Only | Print | Product List | Glossary On
Versions: 1 2 3 4 5 6 7 8 9 10 11 12 13 14 15 16 17 18 19 20 21 22 23 24 25 26 27 28 29 30 31 32 33 34 35 36 37 38 39 40 41 42 43 44 45 46 47 48 49 50
000
ASUS43 KOAX 271902
RWRNE

WEATHER ROUNDUP FOR NEBRASKA
NATIONAL WEATHER SERVICE OMAHA NE
200 PM CDT SAT AUG 27 2016

NOTES: SATELLITE DATA IS BEING USED TO AUGMENT CLOUD COVER ABOVE
       12000 FEET.
       "FAIR" INDICATES FEW OR NO CLOUDS BELOW 12,000 FEET WITH NO
       SIGNIFICANT WEATHER AND/OR OBSTRUCTIONS TO VISIBILITY.

  * THESE STATIONS DO NOT REPORT WEATHER SUCH AS RAIN...SNOW OR FOG.

NEZ001>004-019>022-054>056-272000-
NEBRASKA PANHANDLE

CITY           SKY/WX    TMP DP  RH WIND       PRES   REMARKS
SCOTTSBLUFF    SUNNY     81  48  31 CALM      30.03F
ALLIANCE       SUNNY     79  52  38 S9        30.02F
CHADRON        SUNNY     80  50  34 W5        29.96F
SIDNEY         CLOUDY    76  51  41 S9        30.08F
$$

NEZ057>060-069>072-079>082-272000-
SOUTHWEST NEBRASKA

CITY           SKY/WX    TMP DP  RH WIND       PRES   REMARKS
NORTH PLATTE   SUNNY     82  62  50 S12       30.02F
IMPERIAL       CLOUDY    77  60  55 S10       30.04F
LEXINGTON      SUNNY     81  59  47 S10G17    30.03S
MCCOOK         SUNNY     80  62  54 S7        30.03F
OGALLALA       SUNNY     79  60  52 SW9       30.04S
$$

NEZ005>010-023>029-035>040-094-272000-
NORTH CENTRAL NEBRASKA

CITY           SKY/WX    TMP DP  RH WIND       PRES   REMARKS
VALENTINE      SUNNY     80  58  46 S16       29.98F
AINSWORTH      MOSUNNY   79  60  51 S10       29.99F
BROKEN BOW     SUNNY     80  58  46 VRB5G20   30.02S
O`NEILL        SUNNY     82  56  39 S12G20    30.00S
ORD            SUNNY     78  58  49 MISG      30.01S
THEDFORD       SUNNY     81  59  47 SW14      30.02F
$$

NEZ041-046>049-061>064-073>077-083>087-272000-
SOUTH CENTRAL NEBRASKA

CITY           SKY/WX    TMP DP  RH WIND       PRES   REMARKS
GRAND ISLAND   SUNNY     82  58  43 S7        30.02F
AURORA         SUNNY     79  58  48 CALM      30.03S
HASTINGS       SUNNY     82  61  48 SE12      30.04S
HEBRON         SUNNY     79  65  63 S7        30.03F
HOLDREGE       SUNNY     79  58  48 S10       30.04S
KEARNEY *      SUNNY     81  61  50 S12       30.02S
YORK           SUNNY     77  59  53 SE3       30.03S
$$

NEZ011>018-030>034-042>045-272000-
NORTHEAST NEBRASKA

CITY           SKY/WX    TMP DP  RH WIND       PRES   REMARKS
NORFOLK        MOSUNNY   76  63  64 SE8       30.02S
ALBION         MOSUNNY   76  63  62 S6        30.02S
BLAIR          PTSUNNY   79  65  63 SW7       30.03R
FREMONT        CLOUDY    78  64  61 S5        30.02S
TEKAMAH        PTSUNNY   77  65  66 S5        30.01S
WAYNE          MOSUNNY   75  66  74 SE8       30.02S
$$

NEZ050>053-065>068-078-088>093-272000-
SOUTHEAST NEBRASKA

CITY           SKY/WX    TMP DP  RH WIND       PRES   REMARKS
LINCOLN        SUNNY     83  64  52 W7        30.02S
OMAHA EPPLEY   MOSUNNY   80  63  55 S6        30.01S
BEATRICE       SUNNY     79  66  64 S6        30.03S
FALLS CITY     SUNNY     81  69  67 CALM      30.01F
NEBRASKA CITY  PTSUNNY   77  67  70 S5        30.04R
PLATTSMOUTH    PTSUNNY   80  67  65 S5        30.02S
$$

NEZ044-045-051>053-067-272000-
OMAHA AREA

CITY           SKY/WX    TMP DP  RH WIND       PRES   REMARKS
OMAHA EPPLEY   MOSUNNY   80  63  55 S6        30.01S
BLAIR          PTSUNNY   79  65  63 SW7       30.03R
FREMONT        CLOUDY    78  64  61 S5        30.02S
MILLARD        MOSUNNY   80  65  61 SW9       30.01S
OFFUTT AFB     PTSUNNY   79  66  64 S9        30.01S
PLATTSMOUTH    PTSUNNY   80  67  65 S5        30.02S
WAHOO          FAIR      79  64  61 SW3       30.02S
$$




USA.gov is the U.S. government's official web portal to all federal, state and local government web resources and services.